This demonstration page uses our WeatherBlox Daily Observations layout. Learn more.

Left ArrowRight Arrow

Hourly Observations for November 20, 2022

Temp ( °F °C ) Dew Point ( °F °C ) Humidity (%) Winds ( mph kmh ) Pressure ( in mb ) Visibility ( mi km ) Precip ( " mm )
12:55 am 00:55 Clear 17 -8.6 4 -15.4 58 58 Calm 30.43 1031 10 16 0.00 0.00
1:55 am 01:55 Clear 15 -9.3 4 -15.7 60 60 Calm 30.42 1030 10 16 0.00 0.00
2:55 am 02:55 Clear 16 -9.1 4 -15.5 60 60 Calm 30.41 1030 10 16 0.00 0.00
3:55 am 03:55 Clear 13 -10.4 4 -15.6 65 65 S 5 7 30.38 1029 10 16 0.00 0.00
4:55 am 04:55 Clear 17 -8.2 6 -14.6 60 60 S 6 9 30.38 1029 10 16 0.00 0.00
5:55 am 05:55 Clear 16 -9.1 6 -14.7 64 64 SSE 7 11 30.36 1028 10 16 0.00 0.00
6:55 am 06:55 Clear 16 -9.1 6 -14.3 66 66 ESE 3 6 30.34 1027 10 16 0.00 0.00
7:55 am 07:55 Sunny 20 -6.9 8 -13.2 61 61 SE 5 7 30.32 1027 10 16 0.00 0.00
8:55 am 08:55 Sunny 30 -1 11 -11.4 45 45 SSW 13 20 30.31 1026 10 16 0.00 0.00
9:55 am 09:55 Sunny 35 1.9 12 -10.9 38 38 SSW 13 20 30.29 1026 10 16 0.00 0.00
10:55 am 10:55 Sunny 41 5.1 13 -10.7 31 31 SSW 18 30 30.25 1024 10 16 0.00 0.00
11:55 am 11:55 Sunny 46 7.6 12 -11.2 25 25 SW 16 26 30.22 1023 10 16 0.00 0.00
12:55 pm 12:55 Sunny 49 9.6 12 -11.1 22 22 SW 16 26 30.18 1022 10 16 0.00 0.00
1:55 pm 13:55 Sunny 51 10.3 11 -11.7 20 20 WSW 16 26 30.16 1022 10 16 0.00 0.00
2:55 pm 14:55 Sunny 51 10.7 11 -11.4 20 20 WSW 16 26 30.15 1021 10 16 0.00 0.00
3:55 pm 15:55 Sunny 51 10.5 11 -11.5 20 20 SW 14 22 30.14 1021 10 16 0.00 0.00
4:55 pm 16:55 Sunny 47 8.3 11 -11.6 23 23 WSW 7 11 30.16 1021 10 16 0.00 0.00
5:55 pm 17:55 Clear 43 6 11 -11.6 27 27 WSW 3 6 30.16 1021 10 16 0.00 0.00
6:55 pm 18:55 Clear 40 4.4 10 -12.1 29 29 ESE 5 7 30.17 1022 10 16 0.00 0.00
7:55 pm 19:55 Clear 35 1.9 10 -12 35 35 Calm 30.16 1021 10 16 0.00 0.00
8:55 pm 20:55 Clear 31 -0.3 9 -12.6 39 39 Calm 30.16 1021 10 16 0.00 0.00
9:55 pm 21:55 Clear 30 -1 11 -11.7 44 44 Calm 30.16 1021 10 16 0.00 0.00
10:55 pm 22:55 Clear 32 0.2 10 -12.1 39 39 SSW 3 6 30.16 1021 10 16 0.00 0.00
11:55 pm 23:55 Clear 33 0.5 10 -12.2 38 38 WSW 3 6 30.16 1022 10 16 0.00 0.00

Powered by AerisWeather